Change the Weather History Date:

Wednesday, May 8, 2013

  Actual Average Record
Temperature  
Mean Temperature 63 °F 56 °F  
Max Temperature 73 °F 68 °F 88 °F (1970)
Min Temperature 53 °F 43 °F 30 °F (1954)
Degree Days  
Heating Degree Days 2 10  
Month to date heating degree days 141 87  
Since 1 July heating degree days 7713 7548  
Cooling Degree Days 0 1  
Month to date cooling degree days 0 2  
Year to date cooling degree days 0 4  
Growing Degree Days 12 (Base 50)    
Moisture  
Dew Point 53 °F    
Average Humidity 69    
Maximum Humidity 93    
Minimum Humidity 44    
Precipitation  
Precipitation 0.20 in 0.13 in 3.25 in (1965)
Month to date precipitation 1.00 0.95  
Sea Level Pressure  
Sea Level Pressure 29.96 in    
Wind  
Wind Speed 7 mph (East)    
Max Wind Speed 23 mph    
Max Gust Speed 28 mph    
Visibility 7 miles    
Events Rain    
T = Trace of Precipitation, MM = Missing Value Source: NWS Daily Summary

Daily Weather History Graph

Daily Weather History Graph

Search for Another Location

Airport or City:

Trip Planner

Search our weather history database for the weather conditions in past years. The results will help you decide how hot, cold, wet, or windy it might be!

Date:

Astronomy

May. 08, 2013 Rise Set
Actual Time 6:02 AM CDT 8:29 PM CDT
Civil Twilight 5:30 AM CDT 9:01 PM CDT
Nautical Twilight 4:50 AM CDT 9:41 PM CDT
Astronomical Twilight 4:05 AM CDT 10:26 PM CDT
Moon 5:13 AM CDT (5/8) 7:26 PM CDT (5/8)
Length of Visible Light 15h 31m
Length of Day
14h 26m
Waning Crescent, 2% of the Moon is Illuminated
May 8
Waning Crescent
May 9
New
May 17
First Quarter
May 24
Full
May 31
Last Quarter

Hourly Weather History & Observations

Time (CDT) Temp. Dew Point Humidity Pressure Visibility Wind Dir Wind Speed Gust Speed Precip Events Conditions
12:52 AM 53.1 °F 46.9 °F 80% 29.97 in 10.0 mi Calm Calm - N/A   Clear
1:52 AM 53.1 °F 48.0 °F 83% 29.96 in 10.0 mi Calm Calm - N/A   Overcast
2:52 AM 53.1 °F 48.0 °F 83% 29.95 in 10.0 mi ESE 3.5 mph - N/A   Overcast
4:52 AM 53.1 °F 48.0 °F 83% 29.96 in 9.0 mi South 4.6 mph - N/A   Mostly Cloudy
5:52 AM 54.0 °F 48.0 °F 80% 29.97 in 9.0 mi SW 4.6 mph - N/A   Overcast
6:52 AM 55.9 °F 48.9 °F 77% 29.97 in 7.0 mi North 3.5 mph - N/A   Overcast
7:52 AM 57.9 °F 51.1 °F 78% 29.98 in 7.0 mi NNW 5.8 mph - N/A   Mostly Cloudy
8:52 AM 61.0 °F 52.0 °F 72% 29.99 in 10.0 mi North 8.1 mph - N/A   Scattered Clouds
9:52 AM 64.0 °F 50.0 °F 60% 29.98 in 10.0 mi NE 9.2 mph - N/A   Mostly Cloudy
10:52 AM 66.9 °F 50.0 °F 54% 29.99 in 10.0 mi ENE 6.9 mph - N/A   Overcast
11:52 AM 72.0 °F 50.0 °F 46% 29.97 in 10.0 mi SSE 10.4 mph - N/A   Mostly Cloudy
12:52 PM 71.1 °F 48.9 °F 45% 29.96 in 10.0 mi SSE 12.7 mph 21.9 mph N/A   Partly Cloudy
1:52 PM 72.0 °F 48.9 °F 44% 29.94 in 10.0 mi SSE 11.5 mph - N/A   Mostly Cloudy
2:52 PM 72.0 °F 48.9 °F 44% 29.94 in 10.0 mi SSE 9.2 mph - 0.00 in   Overcast
3:52 PM 66.9 °F 51.1 °F 57% 29.94 in 10.0 mi SSE 18.4 mph - N/A   Overcast
4:52 PM 66.0 °F 55.9 °F 70% 29.94 in 10.0 mi West 12.7 mph - 0.06 in   Overcast
5:52 PM 61.0 °F 55.9 °F 83% 29.96 in 6.0 mi WNW 5.8 mph - 0.00 in   Haze
6:33 PM 60.8 °F 57.2 °F 88% 29.95 in 2.5 mi NNW 5.8 mph - 0.02 in Rain Light Rain
6:41 PM 60.8 °F 57.2 °F 88% 29.95 in 3.0 mi NNW 3.5 mph - 0.03 in Rain Light Rain
6:52 PM 61.0 °F 57.9 °F 90% 29.95 in 3.0 mi Calm Calm - 0.04 in Rain Light Rain
7:12 PM 60.8 °F 57.2 °F 88% 29.95 in 2.5 mi Calm Calm - 0.02 in Rain Rain
7:25 PM 60.8 °F 57.2 °F 88% 29.95 in 3.0 mi ENE 3.5 mph - 0.03 in Rain Light Rain
7:52 PM 59.0 °F 57.0 °F 93% 29.95 in 2.5 mi NE 4.6 mph - 0.06 in Rain Light Rain
8:03 PM 59.0 °F 57.2 °F 94% 29.95 in 4.0 mi NE 3.5 mph - 0.00 in Rain Light Rain
8:30 PM 57.2 °F 55.4 °F 94% 29.96 in 3.0 mi East 4.6 mph - 0.02 in Rain Rain
8:52 PM 57.9 °F 55.9 °F 93% 29.96 in 5.0 mi NE 8.1 mph - 0.03 in Rain Light Rain
9:52 PM 57.9 °F 57.0 °F 97% 29.96 in 4.0 mi NE 3.5 mph - 0.01 in Rain Light Rain
10:12 PM 57.2 °F 55.4 °F 94% 29.96 in 4.0 mi ESE 3.5 mph - 0.00 in   Mostly Cloudy
10:40 PM 57.2 °F 55.4 °F 94% 29.96 in 4.0 mi Calm Calm - 0.00 in   Mostly Cloudy
10:52 PM 57.0 °F 55.9 °F 96% 29.95 in 2.5 mi Calm Calm - 0.00 in   Overcast
11:23 PM 57.2 °F 55.4 °F 94% 29.95 in 4.0 mi ESE 4.6 mph - N/A   Overcast
11:52 PM 57.0 °F 55.9 °F 96% 29.94 in 5.0 mi ESE 5.8 mph - N/A   Overcast